UKR1 UKFF-UKFF

Flight info

Callsign UKR1
Flight time 0h 8m
Altitude 21000
Route SORON M986 SLV
Aircraft L29/M-SDE2E3FGHIRWXY/LB1

Departure

Time 2026-04-19 21:24
Airport Simferopol International Airport (UKFF)

Arrival

Time 2026-04-19 21:32
Airport Simferopol International Airport (UKFF)
Time Latitude Longitude Altitude Speed Heading
2026-04-19 21:18 45.03766 33.96830 593 ft 0 kts 15°
2026-04-19 21:23 45.03775 33.96834 592 ft 0 kts 15°
2026-04-19 21:23 45.03789 33.96838 592 ft 9 kts 10°
2026-04-19 21:23 45.04064 33.96944 589 ft 75 kts 14°
2026-04-19 21:24 45.04742 33.97213 654 ft 115 kts 17°
2026-04-19 21:24 45.05546 33.97534 826 ft 126 kts
2026-04-19 21:24 45.06348 33.97905 1219 ft 118 kts 18°
2026-04-19 21:24 45.07106 33.98373 1481 ft 122 kts 21°
2026-04-19 21:25 45.07959 33.98872 1789 ft 140 kts 17°
2026-04-19 21:25 45.08885 33.99393 2229 ft 148 kts 19°
2026-04-19 21:25 45.09890 33.99974 2587 ft 163 kts 20°
2026-04-19 21:25 45.10923 34.00681 3055 ft 168 kts 31°
2026-04-19 21:26 45.11861 34.01648 3552 ft 162 kts 36°
2026-04-19 21:26 45.12728 34.02708 3770 ft 173 kts 39°
2026-04-19 21:26 45.13617 34.03906 4101 ft 178 kts 39°
2026-04-19 21:26 45.14607 34.05019 4350 ft 191 kts 32°
2026-04-19 21:27 45.15793 34.06187 4254 ft 228 kts 32°
2026-04-19 21:27 45.17157 34.07495 4555 ft 251 kts 30°
2026-04-19 21:27 45.18733 34.08913 4475 ft 286 kts 32°
2026-04-19 21:27 45.20328 34.10831 4382 ft 299 kts 32°
2026-04-19 21:28 45.21826 34.12197 5096 ft 232 kts 34°
2026-04-19 21:28 45.21560 34.13451 4936 ft 138 kts 66°
2026-04-19 21:28 45.22174 34.13454 4503 ft 125 kts 289°
2026-04-19 21:28 45.22316 34.12010 4375 ft 180 kts 272°
2026-04-19 21:29 45.22496 34.09898 4020 ft 241 kts 280°
2026-04-19 21:29 45.22721 34.08192 3918 ft 269 kts 278°
2026-04-19 21:29 45.22595 34.05645 3830 ft 257 kts 240°
2026-04-19 21:29 45.21051 34.04330 3496 ft 280 kts 191°
2026-04-19 21:30 45.19353 34.03713 3866 ft 229 kts 200°
2026-04-19 21:30 45.18030 34.02877 4127 ft 195 kts 204°
2026-04-19 21:30 45.16750 34.01928 4144 ft 229 kts 206°
2026-04-19 21:30 45.15134 34.00972 3784 ft 280 kts 198°
2026-04-19 21:31 45.13211 34.00134 2919 ft 286 kts 195°
2026-04-19 21:31 45.11324 33.99374 2043 ft 277 kts 195°
2026-04-19 21:31 45.09627 33.98727 2081 ft 234 kts 191°
2026-04-19 21:31 45.08128 33.98330 1254 ft 214 kts 191°
2026-04-19 21:32 45.06807 33.97861 594 ft 176 kts 193°
2026-04-19 21:32 45.05771 33.97507 579 ft 130 kts 192°
2026-04-19 21:32 45.05060 33.97274 584 ft 82 kts 194°
2026-04-19 21:32 45.04570 33.97123 585 ft 49 kts 188°
2026-04-19 21:33 45.04487 33.97065 585 ft 0 kts 41°
2026-04-19 21:33 45.04513 33.97090 585 ft 9 kts 25°
2026-04-19 21:33 45.04593 33.97103 585 ft 13 kts
2026-04-19 21:33 45.04695 33.97118 585 ft 3 kts 13°
2026-04-19 21:34 45.04739 33.97144 585 ft 6 kts 49°
2026-04-19 21:34 45.04712 33.97144 585 ft 13 kts 192°
2026-04-19 21:34 45.04521 33.97088 585 ft 33 kts 192°
2026-04-19 21:34 45.04301 33.97019 586 ft 31 kts 194°
2026-04-19 21:35 45.04108 33.96938 588 ft 26 kts 195°
2026-04-19 21:35 45.03943 33.96878 590 ft 22 kts 191°
2026-04-19 21:35 45.03840 33.96856 592 ft 10 kts 157°
2026-04-19 21:35 45.03773 33.96887 592 ft 11 kts 174°
2026-04-19 21:36 45.03682 33.96885 594 ft 14 kts 183°
2026-04-19 21:36 45.03586 33.96885 594 ft 13 kts 169°
2026-04-19 21:36 45.03493 33.96917 593 ft 13 kts 164°
2026-04-19 21:36 45.03417 33.96973 592 ft 10 kts 127°
2026-04-19 21:37 45.03404 33.97062 594 ft 10 kts 90°
2026-04-19 21:37 45.03416 33.97168 597 ft 7 kts 78°
2026-04-19 21:37 45.03419 33.97263 598 ft 23 kts 90°
2026-04-19 21:37 45.03412 33.97340 599 ft 0 kts 112°